sat.trackr.live / text

‹ back to catalog

STARLINK-37934

NORAD 69567 · 2026-135X

PAYLOAD ACTIVE UNKNOWN

§ Identity

Operator
Country
US
Launch date
2026-06-15
Launch site
AFWTR
Launch vehicle
Mass (kg)
RCS (m²)

Purposes: comms

External: N2YO · Heavens-Above · Gunter

§ Orbital elements

Epoch: 2026-09-20T04:06:33.546240Z

Period
93.91 min
Inclination
97.2846°
Eccentricity
0.0001346
Mean motion
15.33451754 rev/d
Perigee alt
464.6 km
Apogee alt
466.4 km
Semi-major
6,843.7 km
B*
2.5184e-4
RAAN
290.9205°
Arg perigee
106.3725°
Mean anomaly
253.7666°
Rev number
1,496

§ Raw data

STARLINK-379341 69567U 26135X   26263.17122160  .00008066  00000+0  25184-3 0  99912 69567  97.2846 290.9205 0001346 106.3725 253.7666 15.33451754 14969

JSON: /api/v1/satellites/69567 · /tle

For live sub-satellite position, see the globe view (requires WebGL).

§ Visibility from observer

Set your observer location to see the next 7 days of passes ≥ 10°. The values pass through the URL so the page stays shareable.

No JS? Fill the form by hand. The geolocation button needs JavaScript.